This demonstration page uses our WeatherBlox Daily Observations layout. Learn more.

40.92945, -100.16068

Hourly Observations for March 17, 2020

Temp ( °F °C ) Dew Point ( °F °C ) Humidity (%) Winds ( mph kmh ) Pressure ( in mb ) Visibility ( mi km ) Precip ( " mm )
12:15 am 00:15 Cloudy 35 1.8 33 0.5 91 91 NNE 7 11 30.38 1029 10 16.0934 0 0
12:35 am 00:35 Cloudy 35 1.5 33 0.3 92 92 NNE 8 13 30.38 1029 7 11.26538 0 0
12:55 am 00:55 Cloudy 34 1.3 32 0.1 92 92 NNE 7 11 30.37 1029 7 11.26538 0 0
1:15 am 01:15 Cloudy 34 1.2 32 0 92 92 NE 6 9 30.38 1029 7 11.26538 0 0
1:35 am 01:35 Cloudy 34 1.1 32 0 92 92 NNE 3 6 30.38 1029 7 11.26538 0 0
1:55 am 01:55 Cloudy 34 1.1 32 0 92 92 N 3 6 30.39 1029 7 11.26538 0 0
2:15 am 02:15 Cloudy 34 1.1 32 0 92 92 Calm 30.39 1029 7 11.26538 0 0
2:35 am 02:35 Cloudy 34 1.1 32 0 92 92 Calm 30.39 1029 10 16.0934 0 0
2:55 am 02:55 Cloudy 34 1 31 -0.4 90 90 Calm 30.39 1029 10 16.0934 0 0
3:15 am 03:15 Cloudy 34 1 32 -0.2 92 92 Calm 30.4 1029 10 16.0934 0 0
3:35 am 03:35 Cloudy 34 1 32 0 93 93 Calm 30.39 1029 7 11.26538 0 0
3:55 am 03:55 Cloudy 34 1 32 0 93 93 Calm 30.39 1029 7 11.26538 0 0
4:15 am 04:15 Cloudy 34 1 32 0 93 93 Calm 30.37 1028 7 11.26538 0 0
4:35 am 04:35 Cloudy 34 0.9 32 0 94 94 Calm 30.36 1028 7 11.26538 0 0
4:55 am 04:55 Cloudy 33 0.8 32 0 94 94 NE 3 6 30.35 1028 7 11.26538 0 0
5:15 am 05:15 Cloudy 33 0.7 32 0 95 95 Calm 30.36 1028 7 11.26538 0 0
5:35 am 05:35 Cloudy 33 0.7 32 0 95 95 Calm 30.35 1028 7 11.26538 0 0
5:55 am 05:55 Cloudy 33 0.7 32 0 95 95 Calm 30.36 1028 7 11.26538 0 0
6:15 am 06:15 Cloudy 34 0.9 32 0 94 94 S 3 6 30.36 1028 7 11.26538 0 0
6:35 am 06:35 Cloudy 33 0.8 32 0 94 94 SSE 3 6 30.36 1028 7 11.26538 0 0
6:55 am 06:55 Cloudy 33 0.8 32 -0.1 94 94 SE 6 9 30.35 1028 7 11.26538 0 0
7:15 am 07:15 Cloudy 33 0.7 32 0 95 95 SSE 6 9 30.35 1028 7 11.26538 0 0
7:35 am 07:35 Cloudy 33 0.7 32 0 95 95 SE 5 7 30.34 1027 7 11.26538 0 0
7:55 am 07:55 Cloudy with Mist and Fog 33 0.7 32 0 95 95 SE 5 7 30.33 1027 5 8.0467 0 0
8:15 am 08:15 Cloudy with Mist and Fog 33 0.8 32 0 94 94 ESE 7 11 30.33 1027 5 8.0467 0 0
8:35 am 08:35 Cloudy with Mist and Fog 34 1 32 0 93 93 SE 7 11 30.33 1027 5 8.0467 0 0
8:55 am 08:55 Cloudy with Mist and Fog 34 1 32 0 93 93 SE 7 11 30.33 1027 5 8.0467 0 0
9:15 am 09:15 Cloudy with Mist and Fog 34 1.1 32 0.2 94 94 SE 7 11 30.34 1027 5 8.0467 0 0
9:35 am 09:35 Cloudy with Mist and Fog 34 1.2 32 0.2 93 93 SSE 7 11 30.34 1027 5 8.0467 0 0
9:55 am 09:55 Cloudy with Mist and Fog 34 1.3 33 0.4 94 94 SSE 9 15 30.33 1027 5 8.0467 0 0
10:15 am 10:15 Cloudy with Mist and Fog 35 1.5 33 0.6 94 94 SE 9 15 30.32 1027 4 6.43736 0 0
10:35 am 10:35 Cloudy with Mist and Fog 35 1.5 33 0.6 94 94 S 10 17 30.32 1027 5 8.0467 0 0
10:55 am 10:55 Cloudy 35 1.8 33 0.5 91 91 SSE 9 15 30.31 1026 7 11.26538 0 0
11:15 am 11:15 Cloudy 35 1.8 33 0.6 92 92 SSE 12 19 30.3 1026 7 11.26538 0 0
11:35 am 11:35 Cloudy with Mist and Fog 35 1.7 33 0.8 94 94 SE 9 15 30.28 1025 5 8.0467 0 0
11:55 am 11:55 Cloudy with Mist and Fog 35 1.5 34 1.2 98 98 SSE 12 19 30.28 1025 3 4.82802 0 0
12:15 pm 12:15 Cloudy with Mist and Fog 35 1.7 35 1.4 98 98 SSE 10 17 30.28 1025 3 4.82802 0 0
12:35 pm 12:35 Cloudy with Mist and Fog 36 2 35 1.5 97 97 SSE 13 20 30.27 1025 5 8.0467 0 0
12:55 pm 12:55 Cloudy with Mist and Fog 36 2.2 35 1.5 95 95 SSE 13 20 30.26 1025 5 8.0467 0 0
1:15 pm 13:15 Cloudy with Mist and Fog 36 2.4 35 1.6 95 95 SSE 14 22 30.24 1024 4 6.43736 0 0
1:35 pm 13:35 Cloudy with Mist and Fog 36 2.3 36 2 98 98 SSE 15 24 30.23 1024 2 3.21868 0 0
1:55 pm 13:55 Cloudy with Mist and Fog 36 2.4 35 1.9 97 97 SSE 13 20 30.21 1023 3 4.82802 0 0
2:15 pm 14:15 Cloudy with Mist and Fog 37 2.8 36 2.2 96 96 SSE 13 20 30.19 1022 5 8.0467 0 0
2:35 pm 14:35 Cloudy 38 3.1 36 2.1 93 93 SSE 15 24 30.18 1022 10 16.0934 0 0
2:55 pm 14:55 Cloudy 38 3.4 35 1.8 89 89 S 18 30 30.16 1021 10 16.0934 0 0
3:15 pm 15:15 Cloudy 38 3.5 36 2 90 90 S 15 24 30.16 1021 10 16.0934 0 0
3:35 pm 15:35 Cloudy 38 3.6 36 2.1 90 90 S 17 28 30.14 1021 10 16.0934 0 0
3:55 pm 15:55 Cloudy 38 3.2 36 2.1 93 93 SSE 17 28 30.13 1020 7 11.26538 0 0
4:15 pm 16:15 Cloudy 38 3.2 36 2 92 92 S 15 24 30.13 1020 10 16.0934 0 0
4:35 pm 16:35 Cloudy with Mist and Fog 37 3 36 2.2 95 95 S 15 24 30.13 1020 4 6.43736 0 0
4:55 pm 16:55 Cloudy with Mist and Fog 37 3 37 2.5 97 97 SSE 14 22 30.12 1020 4 6.43736 0 0
5:15 pm 17:15 Cloudy with Mist and Fog 38 3.1 37 2.6 97 97 SSE 13 20 30.11 1020 5 8.0467 0 0
5:35 pm 17:35 Cloudy 38 3.2 37 2.5 95 95 SSE 12 19 30.1 1019 10 16.0934 0 0
5:55 pm 17:55 Cloudy 38 3.2 36 2.3 94 94 SSE 13 20 30.09 1019 10 16.0934 0 0
6:15 pm 18:15 Cloudy 38 3.1 36 2.4 95 95 SSE 14 22 30.08 1019 10 16.0934 0 0
6:35 pm 18:35 Cloudy 37 3 37 2.5 97 97 SSE 13 20 30.08 1019 7 11.26538 0 0
6:55 pm 18:55 Cloudy 38 3.1 37 2.5 96 96 SSE 12 19 30.07 1018 10 16.0934 0 0
7:15 pm 19:15 Cloudy 38 3.1 37 2.5 96 96 SSE 12 19 30.07 1018 10 16.0934 0 0
7:35 pm 19:35 Cloudy 38 3.1 37 2.6 97 97 SSE 14 22 30.06 1018 10 16.0934 0 0
7:55 pm 19:55 Cloudy with Mist and Fog 38 3.1 37 2.8 98 98 SSE 14 22 30.06 1018 5 8.0467 0 0
8:15 pm 20:15 Cloudy 38 3.1 37 3 99 99 SSE 14 22 30.06 1018 7 11.26538 0 0
8:35 pm 20:35 Cloudy with Mist and Fog 38 3.1 37 3 99 99 SSE 8 13 30.06 1018 4 6.43736 0 0
8:55 pm 20:55 Cloudy with Mist and Fog 38 3.1 37 3 99 99 SSE 12 19 30.05 1017 5 8.0467 0 0
9:15 pm 21:15 Cloudy 38 3.1 37 3 99 99 SSE 12 19 30.05 1017 10 16.0934 0 0
9:35 pm 21:35 Cloudy 38 3.3 37 3 98 98 SSE 9 15 30.05 1018 10 16.0934 0 0
9:55 pm 21:55 Cloudy with Mist and Fog 38 3.3 38 3.1 99 99 SSE 9 15 30.04 1017 4 6.43736 0 0
10:15 pm 22:15 Cloudy with Mist and Fog 38 3.3 38 3.3 100 100 SSE 10 17 30.04 1017 3 4.82802 0 0
10:35 pm 22:35 Cloudy with Mist and Fog 38 3.3 38 3.3 100 100 SE 9 15 30.03 1017 3 4.82802 0 0
10:55 pm 22:55 Cloudy with Mist and Fog 38 3.4 38 3.4 100 100 SSE 9 15 30.03 1017 3 4.82802 0 0
11:15 pm 23:15 Cloudy with Mist and Fog 38 3.5 38 3.5 100 100 SSE 9 15 30.02 1017 3 4.82802 0 0
11:35 pm 23:35 Cloudy with Mist and Fog 38 3.5 38 3.5 100 100 SSE 10 17 30.02 1017 3 4.82802 0 0
11:55 pm 23:55 Cloudy with Mist and Fog 38 3.5 38 3.5 100 100 SSE 8 13 30.01 1016 3 4.82802 0 0

Powered by AerisWeather